Temperature
1 0 1 1 1 1 1 1 1 2 2 2 2 2 2 2 2 2 2 2 2 2 2 2 2 2 2 2 2 2 2 2 2 1 2 2 2 2 2 2 2 2 2
-0 -0 0 0 0 0 1 1 1 1 1 1 1 1 2 2 2 2 1 1 1 1 1 1 1 1 1 1 1 1 1 1 1 1 1 1 1 1 1 1 1 1 1
-1 -1 -1 -0 -0 0 0 0 -0 0 0 0 1 1 1 1 1 1 1 1 1 1 1 1 1 1 1 1 1 1 1 1 1 0 0 0 0 0 0 0 0 0 1
-1 -1 -1 -1 -1 -1 -1 -1 -1 -0 -0 -0 0 0 0 0 1 0 0 0 0 0 0 1 1 1 1 1 0 0 0 0 -0 -0 -0 -0 -0 -1 -1 -1 -0 -0 -0
-2 -2 -2 -1 -1 -1 -1 -1 -1 -1 -1 -1 -1 -0 -0 -0 -0 -0 -0 -0 -0 -0 -0 0 0 0 0 -0 -0 -0 -0 -0 -1 -1 -1 -1 -1 -1 -1 -1 -1 -1 -1
-2 -2 -2 -2 -2 -2 -2 -2 -2 -2 -2 -2 -1 -1 -1 -1 -1 -1 -1 -1 -1 -1 -0 -0 -0 -0 -0 -1 -1 -1 -1 -1 -1 -1 -1 -1 -1 -1 -2 -2 -2 -2 -2
-3 -3 -3 -3 -2 -2 -2 -2 -2 -2 -2 -2 -2 -2 -2 -2 -1 -1 -1 -1 -1 -1 -1 -1 -1 -1 -1 -1 -1 -1 -1 -1 -2 -2 -2 -1 -1 -1 -2 -2 -2 -2 -2
-4 -3 -3 -3 -3 -3 -3 -3 -3 -3 -3 -3 -3 -2 -2 -2 -2 -2 -2 -2 -2 -2 -2 -2 -2 -2 -2 -2 -2 -2 -2 -2 -2 -2 -2 -2 -2 -2 -2 -2 -2 -3 -3
-4 -4 -4 -4 -4 -4 -4 -3 -3 -3 -3 -3 -3 -3 -3 -3 -3 -3 -3 -3 -3 -3 -2 -2 -2 -2 -2 -3 -3 -3 -3 -2 -3 -3 -3 -3 -3 -3 -3 -3 -3 -4 -4
-5 -5 -5 -5 -4 -4 -4 -4 -4 -4 -4 -4 -4 -4 -4 -4 -4 -4 -4 -4 -4 -3 -3 -3 -3 -3 -3 -3 -3 -3 -3 -3 -3 -3 -3 -3 -3 -3 -4 -4 -4 -4 -4
-5 -5 -5 -5 -5 -5 -5 -5 -5 -5 -5 -5 -5 -5 -5 -5 -4 -4 -5 -5 -4 -4 -4 -4 -4 -4 -4 -4 -4 -4 -4 -4 -4 -4 -4 -4 -4 -4 -4 -4 -4 -4 -5
-6 -6 -6 -6 -6 -6 -6 -5 -6 -6 -6 -5 -5 -5 -5 -5 -5 -5 -5 -5 -5 -5 -5 -4 -4 -4 -4 -4 -4 -4 -4 -4 -4 -5 -5 -5 -4 -5 -5 -5 -5 -5 -5
-7 -6 -6 -6 -6 -6 -6 -6 -6 -6 -6 -6 -6 -6 -6 -6 -6 -6 -6 -5 -5 -5 -5 -5 -5 -5 -5 -5 -5 -5 -5 -5 -5 -5 -5 -5 -5 -5 -6 -6 -6 -6 -6
-7 -7 -7 -7 -6 -6 -7 -7 -7 -7 -7 -7 -7 -7 -7 -6 -6 -6 -6 -6 -6 -6 -6 -5 -5 -5 -6 -6 -6 -6 -6 -6 -6 -6 -6 -6 -6 -7 -7 -7 -7 -7 -7
-7 -7 -7 -7 -7 -7 -7 -7 -7 -7 -7 -7 -7 -7 -7 -7 -7 -6 -6 -6 -6 -6 -6 -6 -6 -6 -6 -6 -6 -6 -6 -6 -6 -6 -7 -7 -7 -7 -8 -8 -8 -8 -8
-8 -8 -8 -8 -8 -8 -8 -8 -8 -8 -8 -8 -8 -8 -8 -7 -7 -7 -7 -7 -6 -6 -6 -6 -7 -7 -7 -7 -7 -7 -7 -7 -7 -7 -7 -7 -8 -8 -8 -8 -8 -8 -8
-9 -9 -9 -9 -9 -9 -9 -9 -8 -8 -8 -8 -8 -8 -8 -8 -8 -7 -7 -7 -7 -7 -7 -7 -7 -7 -7 -7 -7 -7 -7 -7 -7 -8 -8 -8 -8 -9 -9 -9 -9 -9 -9
-9 -9 -9 -9 -9 -9 -9 -9 -9 -9 -9 -9 -8 -8 -8 -8 -8 -8 -8 -8 -8 -8 -8 -7 -8 -8 -8 -8 -8 -8 -8 -8 -8 -8 -8 -9 -9 -9 -9 -10 -10 -10 -10
-10 -10 -10 -10 -10 -10 -10 -9 -9 -9 -9 -9 -9 -9 -9 -9 -8 -8 -8 -8 -8 -8 -8 -8 -8 -8 -9 -9 -9 -9 -9 -9 -9 -9 -9 -9 -9 -10 -10 -10 -10 -10 -11
-10 -10 -10 -10 -10 -10 -10 -10 -10 -10 -10 -10 -10 -9 -9 -9 -9 -9 -9 -9 -9 -9 -9 -9 -9 -9 -9 -9 -9 -9 -9 -9 -10 -10 -10 -10 -10 -10 -11 -11 -11 -11 -11
-11 -11 -11 -11 -11 -11 -11 -11 -11 -10 -10 -10 -10 -10 -10 -10 -10 -10 -10 -9 -9 -10 -10 -10 -10 -10 -10 -10 -10 -10 -10 -10 -10 -10 -10 -10 -11 -11 -11 -11 -11 -12 -12
-11 -11 -11 -11 -11 -11 -11 -11 -11 -11 -11 -11 -11 -10 -10 -10 -10 -10 -10 -10 -10 -10 -10 -10 -10 -10 -10 -10 -10 -10 -10 -11 -11 -11 -11 -11 -11 -11 -12 -12 -12 -12 -12
-11 -11 -12 -12 -12 -12 -12 -11 -11 -11 -11 -11 -11 -11 -11 -11 -11 -11 -11 -11 -11 -11 -11 -11 -11 -11 -11 -11 -11 -11 -11 -11 -11 -11 -11 -12 -12 -12 -12 -12 -12 -13 -13
-12 -12 -12 -12 -12 -12 -12 -12 -12 -12 -12 -12 -12 -12 -11 -11 -11 -11 -11 -11 -11 -11 -11 -11 -11 -12 -12 -12 -12 -12 -12 -12 -12 -12 -12 -12 -12 -12 -13 -13 -13 -13 -13
-12 -13 -13 -13 -13 -12 -12 -12 -12 -12 -12 -12 -12 -12 -12 -12 -12 -12 -12 -12 -12 -12 -12 -12 -12 -12 -12 -12 -12 -12 -12 -12 -13 -13 -13 -13 -13 -13 -13 -13 -13 -14 -14
-13 -13 -13 -13 -13 -13 -13 -13 -13 -13 -13 -13 -13 -13 -13 -13 -12 -12 -12 -12 -12 -12 -12 -13 -13 -13 -13 -13 -13 -13 -13 -13 -13 -13 -13 -14 -13 -14 -14 -14 -14 -14 -14
Wind_Speed
2 2 2 2 2 2 2 3 3 3 3 4 4 4 4 5 5 4 4 5 5 4 4 4 4 3 3 3 3 3 3 2 4 3 1 1 3 3 4 4 6 6 6
2 2 2 2 2 2 3 2 2 3 3 3 4 5 5 5 5 6 6 6 6 6 5 5 5 3 4 4 3 4 3 3 3 4 2 1 2 3 4 3 4 5 6
2 2 2 2 2 3 3 3 3 3 4 4 4 5 5 6 6 6 7 7 6 6 6 6 6 5 5 4 5 4 3 3 2 3 3 2 2 2 2 2 3 3 5
1 2 3 3 3 2 2 2 3 3 4 4 5 5 6 5 6 7 7 7 6 6 7 7 7 7 7 5 5 6 4 4 3 3 3 2 2 2 2 2 2 2 3
2 2 3 3 3 2 3 3 3 3 4 4 5 5 5 5 6 7 6 6 6 6 6 6 7 7 8 7 6 6 6 5 4 4 4 3 3 3 3 3 3 2 3
2 3 3 3 3 3 3 3 3 3 4 4 5 5 5 5 8 9 7 6 6 6 6 6 6 7 8 10 10 9 8 7 7 6 5 5 6 4 3 3 3 2 4
2 3 2 2 3 3 3 3 4 4 4 4 5 5 6 6 9 9 9 6 6 6 6 6 5 6 8 6 8 9 9 10 10 8 7 7 6 5 5 5 5 4 4
2 3 3 3 3 3 3 4 5 4 4 5 5 5 5 6 8 9 9 6 6 6 7 7 6 6 7 7 5 5 6 7 8 7 6 6 5 5 6 6 5 3 2
3 3 3 3 3 3 3 4 4 4 4 4 5 5 6 6 8 9 8 4 5 6 6 6 6 6 9 8 6 6 5 5 7 8 7 7 8 8 7 3 3 3 3
3 3 3 3 3 4 4 4 4 4 4 4 5 5 6 6 8 8 8 4 5 4 4 5 8 8 9 9 7 6 7 5 4 4 5 5 5 7 8 6 5 5 3
3 3 3 3 4 4 4 3 3 3 4 4 4 4 5 6 7 8 8 4 4 4 4 4 5 8 9 9 8 6 8 6 4 4 4 3 3 3 4 5 6 5 4
2 3 3 3 3 3 3 3 3 3 3 4 3 3 3 4 6 7 8 7 5 4 4 3 4 7 7 7 5 6 7 5 3 3 3 3 3 3 2 2 3 3 3
3 3 3 3 3 3 2 2 2 2 2 3 3 3 3 2 3 6 7 7 6 4 3 5 5 6 5 4 4 4 4 4 4 4 4 3 2 2 2 2 1 1 1
2 2 2 2 2 2 2 2 2 2 3 3 3 3 2 2 2 3 3 3 4 3 2 3 4 4 3 3 3 2 2 3 3 3 3 2 2 2 2 2 1 1 1
2 2 2 2 2 2 2 2 3 3 4 3 3 3 3 4 4 5 3 3 3 3 3 2 2 2 2 2 1 1 1 2 2 2 3 2 2 2 1 1 1 1 2
2 2 2 2 1 1 1 2 3 3 4 5 5 5 4 5 5 5 5 4 4 5 4 3 3 3 3 3 2 2 2 2 2 2 2 3 2 2 2 1 1 2 2
3 3 2 2 2 2 1 1 2 2 3 4 4 4 3 3 3 3 3 3 3 4 3 3 3 3 3 3 3 3 2 2 2 2 2 2 2 2 2 2 2 1 2
3 3 3 2 2 2 1 1 1 1 2 2 2 2 2 2 2 2 2 1 1 2 2 2 2 2 2 2 2 2 2 2 2 2 2 2 2 2 2 2 2 2 2
3 2 2 2 2 2 1 1 1 1 1 1 1 1 2 1 2 2 1 2 2 2 2 2 2 2 2 2 2 2 2 2 2 2 2 2 2 2 2 2 2 3 2
2 4 3 2 1 2 1 1 1 1 1 1 1 1 1 0 0 0 0 1 2 2 2 2 2 2 2 2 2 2 2 2 2 2 2 2 2 2 2 2 2 2 2
2 3 4 2 2 2 1 1 1 1 1 1 1 2 2 0 1 1 1 1 2 2 2 2 2 2 2 2 2 2 2 2 2 2 2 2 2 2 2 2 2 1 1
2 2 2 1 1 1 1 1 1 0 1 1 1 2 2 0 1 1 1 1 1 1 2 2 2 2 2 2 3 3 2 2 2 2 2 2 2 2 2 2 1 1 1
2 2 2 2 1 2 2 1 1 1 1 1 1 1 1 1 1 1 1 1 1 1 1 2 1 1 1 2 3 3 3 3 3 4 3 3 2 2 2 2 2 2 2
1 1 1 1 1 1 1 1 1 1 1 1 1 1 1 0 0 0 1 1 1 1 1 1 2 2 2 2 2 2 3 4 4 5 5 4 3 3 2 2 2 2 2
1 1 1 1 1 1 1 1 1 1 1 1 1 1 1 0 0 0 1 1 1 1 1 1 2 2 2 3 3 3 4 4 4 4 5 5 4 3 3 3 3 2 2
1 1 1 1 1 1 1 1 1 1 1 1 1 1 1 1 0 0 0 1 1 1 1 1 2 2 3 3 3 4 4 5 5 5 5 5 4 3 3 3 3 3 3
Wind_Direction
219 223 227 216 198 189 192 194 189 182 174 184 196 193 193 194 189 188 195 197 197 203 200 198 208 208 198 195 195 201 215 206 233 263 268 184 179 202 224 232 237 233 234
224 229 228 225 211 201 204 205 196 194 191 193 199 201 203 206 198 194 204 206 203 205 204 201 211 211 209 203 200 207 215 214 214 236 254 236 220 206 208 222 237 238 234
224 216 224 226 219 215 215 212 211 204 199 200 200 202 208 210 205 206 206 210 211 210 207 207 211 206 213 212 204 205 212 216 213 219 237 240 248 217 211 247 245 246 248
244 218 224 230 227 220 217 221 219 212 205 205 208 210 214 217 214 211 211 211 214 215 210 208 208 208 212 210 211 207 203 204 206 216 227 227 237 232 196 221 258 256 260
249 242 233 234 233 228 218 224 227 223 221 211 209 214 217 221 220 212 210 212 213 216 212 210 211 213 214 213 219 209 200 203 206 219 226 224 223 215 218 219 237 257 268
255 259 257 240 232 228 225 220 224 227 225 217 211 210 216 228 228 223 222 212 212 212 215 217 216 212 215 220 228 224 212 208 210 216 227 225 227 222 216 219 224 246 264
262 265 262 253 249 236 231 222 223 225 220 220 217 212 221 231 233 229 228 220 217 215 213 214 222 220 219 215 228 230 225 223 218 213 221 227 222 215 206 216 222 234 249
264 266 264 254 250 248 234 228 229 224 223 226 225 219 225 240 238 232 230 221 221 218 214 211 213 215 217 211 213 220 225 226 226 221 220 224 223 210 208 215 222 237 263
263 266 267 260 255 250 247 243 235 228 228 229 229 223 226 238 240 237 233 218 222 219 216 212 209 211 223 217 209 215 227 233 228 227 231 231 229 223 213 198 204 218 256
267 273 272 262 254 254 253 253 249 239 231 228 232 225 222 228 239 239 236 222 224 226 219 213 217 220 222 218 209 209 222 220 206 221 232 235 228 222 217 208 203 214 241
282 279 271 263 256 254 252 250 247 245 230 223 231 235 226 231 237 240 239 227 217 220 222 215 215 220 223 223 222 216 224 213 200 205 212 212 209 210 214 217 207 207 220
275 274 272 267 265 267 251 251 241 226 228 223 224 237 240 239 241 241 241 237 228 216 221 215 212 213 217 216 218 216 216 210 191 196 206 206 203 209 206 202 199 206 221
271 271 272 274 272 271 258 249 240 216 216 234 223 233 251 251 240 245 243 237 237 225 215 215 214 208 206 207 207 207 204 196 188 197 205 207 200 183 151 129 103 75 5
287 288 288 280 275 271 262 253 238 222 218 225 234 236 244 250 239 236 226 231 231 223 209 205 206 198 191 185 189 203 203 192 185 192 187 175 155 155 167 179 196 194 235
308 308 310 299 282 279 274 252 249 240 229 228 226 226 234 240 245 246 238 228 206 193 168 162 162 160 169 167 173 178 176 173 177 171 172 168 169 174 187 197 207 215 224
310 312 303 298 291 283 284 303 285 269 268 260 253 249 252 252 258 250 248 241 211 177 158 161 171 175 177 180 185 188 192 189 182 175 170 173 182 187 194 197 202 208 222
296 298 295 295 291 282 279 275 305 328 312 287 271 264 258 256 248 245 240 232 208 172 157 165 172 176 181 183 186 188 193 192 180 174 173 172 179 188 191 198 200 206 224
302 300 304 299 293 288 279 279 278 284 303 317 311 294 287 271 250 243 228 205 202 180 156 165 171 172 174 175 178 179 174 173 175 174 171 172 178 182 188 198 201 197 209
306 303 304 306 301 295 289 284 276 271 272 300 335 324 309 313 307 289 243 177 175 174 164 164 164 165 170 175 179 175 169 176 178 176 182 185 183 179 187 198 201 211 213
309 310 316 318 318 319 313 298 278 266 271 278 278 278 287 319 350 316 207 170 171 165 162 169 169 165 166 175 172 165 163 171 173 172 177 181 181 178 186 195 198 204 215
312 318 324 330 327 316 307 297 279 265 270 282 290 280 268 213 172 170 176 169 167 166 166 166 163 161 165 170 162 165 168 174 176 169 171 175 171 172 178 184 187 189 190
323 319 325 326 325 317 313 313 318 311 312 321 340 333 321 27 139 161 166 159 144 142 145 145 153 169 186 183 172 172 179 181 179 169 171 176 173 171 169 170 177 188 193
321 325 333 333 328 315 327 339 336 334 338 335 338 346 350 59 93 109 116 113 111 115 131 142 155 167 168 184 188 183 184 193 193 182 178 180 178 180 178 181 186 194 209
325 329 339 338 332 324 327 334 340 340 341 341 341 335 328 313 137 128 121 133 148 153 159 163 168 171 185 196 205 206 202 201 195 189 180 177 181 183 180 186 197 203 212
348 345 335 322 324 327 331 329 325 323 321 321 324 323 324 315 238 211 159 158 174 183 191 193 185 182 190 201 213 219 216 216 210 194 180 173 174 181 186 192 198 202 212
5 2 354 349 341 332 327 324 320 319 310 308 311 308 304 297 275 223 172 175 182 192 210 213 209 211 217 219 221 225 227 228 226 222 192 176 176 183 185 196 199 205 207
Height
1468 1469 1470 1472 1473 1475 1476 1478 1479 1481 1483 1485 1487 1489 1491 1493 1495 1497 1500 1502 1503 1505 1507 1509 1510 1512 1513 1514 1516 1518 1519 1520 1520 1521 1523 1524 1525 1526 1526 1526 1527 1526 1527
1465 1466 1467 1468 1469 1471 1472 1474 1475 1477 1478 1480 1482 1484 1486 1488 1490 1492 1494 1496 1498 1499 1501 1503 1505 1507 1508 1510 1511 1513 1514 1515 1516 1516 1517 1518 1519 1520 1520 1521 1521 1521 1521
1461 1462 1463 1464 1465 1466 1468 1469 1471 1472 1473 1475 1477 1479 1481 1483 1485 1487 1489 1491 1492 1494 1496 1498 1500 1502 1503 1505 1506 1507 1508 1510 1511 1511 1511 1513 1513 1514 1515 1515 1515 1516 1516
1457 1458 1458 1459 1460 1462 1463 1465 1466 1467 1469 1470 1472 1474 1476 1478 1479 1481 1483 1485 1487 1489 1491 1492 1494 1496 1497 1499 1500 1501 1503 1504 1505 1506 1506 1507 1508 1508 1509 1509 1509 1510 1510
1453 1453 1454 1455 1456 1458 1459 1460 1461 1462 1464 1466 1467 1469 1471 1472 1474 1475 1477 1479 1481 1483 1485 1486 1488 1490 1491 1493 1494 1495 1497 1498 1499 1500 1500 1501 1502 1503 1503 1504 1504 1504 1504
1449 1449 1450 1451 1452 1453 1454 1455 1456 1458 1459 1460 1462 1463 1465 1466 1468 1470 1472 1473 1475 1477 1478 1480 1482 1483 1485 1487 1488 1490 1491 1492 1492 1494 1494 1495 1495 1496 1498 1498 1499 1498 1497
1445 1445 1445 1446 1447 1448 1449 1450 1451 1452 1454 1455 1456 1458 1459 1461 1463 1464 1466 1467 1469 1470 1472 1474 1475 1477 1479 1480 1482 1483 1484 1486 1487 1488 1488 1489 1490 1491 1492 1492 1492 1492 1492
1440 1440 1441 1442 1442 1443 1444 1445 1446 1447 1448 1449 1450 1452 1454 1455 1457 1458 1460 1461 1462 1464 1466 1467 1469 1470 1472 1474 1475 1476 1477 1479 1480 1481 1482 1483 1484 1485 1486 1487 1487 1487 1486
1436 1436 1437 1438 1438 1439 1439 1440 1441 1442 1443 1444 1445 1446 1447 1449 1451 1452 1454 1455 1456 1457 1459 1461 1463 1464 1466 1468 1469 1470 1471 1472 1474 1475 1476 1477 1478 1479 1480 1481 1480 1481 1479
1433 1433 1433 1434 1434 1434 1435 1435 1436 1437 1437 1438 1439 1441 1442 1443 1445 1446 1448 1449 1450 1451 1453 1455 1457 1458 1460 1462 1463 1463 1464 1465 1467 1468 1469 1470 1471 1472 1473 1474 1475 1475 1474
1430 1430 1430 1430 1430 1430 1430 1431 1431 1432 1433 1433 1434 1435 1436 1438 1439 1441 1442 1444 1444 1446 1447 1449 1450 1453 1454 1455 1457 1458 1459 1460 1461 1462 1463 1464 1465 1465 1466 1468 1468 1469 1469
1427 1426 1426 1426 1426 1426 1426 1426 1427 1427 1428 1428 1429 1430 1431 1433 1434 1435 1437 1439 1440 1441 1442 1444 1445 1447 1449 1450 1451 1452 1454 1455 1456 1456 1457 1457 1458 1459 1461 1462 1463 1463 1464
1423 1423 1423 1423 1423 1423 1422 1422 1422 1423 1423 1424 1424 1425 1426 1428 1429 1431 1432 1434 1435 1437 1438 1439 1441 1442 1443 1444 1446 1447 1448 1449 1450 1451 1451 1452 1453 1454 1455 1456 1457 1458 1458
1420 1420 1420 1419 1419 1419 1419 1419 1419 1419 1419 1420 1420 1421 1422 1423 1424 1426 1428 1429 1430 1431 1433 1435 1436 1438 1439 1440 1441 1442 1443 1444 1445 1446 1447 1448 1449 1450 1450 1451 1452 1452 1452
1417 1416 1416 1416 1415 1415 1416 1416 1416 1416 1417 1417 1417 1418 1419 1419 1421 1423 1424 1425 1426 1427 1429 1430 1431 1432 1433 1434 1436 1437 1438 1440 1440 1441 1442 1443 1444 1445 1446 1447 1447 1448 1447
1415 1414 1413 1413 1413 1413 1412 1412 1413 1414 1414 1415 1415 1416 1416 1417 1418 1419 1420 1421 1423 1424 1425 1425 1427 1428 1429 1430 1431 1433 1434 1435 1436 1437 1438 1439 1440 1441 1442 1442 1443 1443 1443
1413 1412 1411 1411 1410 1410 1410 1410 1409 1410 1411 1412 1412 1413 1413 1414 1414 1415 1416 1418 1419 1421 1421 1422 1423 1424 1425 1426 1428 1429 1430 1432 1433 1434 1435 1436 1437 1437 1438 1438 1439 1439 1439
1411 1410 1409 1409 1408 1408 1408 1408 1408 1408 1408 1408 1409 1410 1410 1411 1411 1412 1413 1415 1415 1417 1418 1419 1420 1421 1422 1423 1425 1426 1427 1428 1430 1430 1431 1432 1433 1434 1434 1435 1435 1435 1435
1409 1408 1407 1407 1407 1407 1407 1406 1406 1406 1406 1406 1406 1407 1408 1408 1408 1409 1410 1411 1412 1413 1414 1416 1417 1418 1420 1421 1422 1423 1424 1425 1426 1427 1428 1429 1430 1430 1430 1431 1431 1432 1432
1408 1407 1407 1406 1405 1405 1405 1405 1404 1404 1404 1404 1404 1405 1405 1405 1405 1406 1407 1408 1409 1410 1412 1413 1415 1416 1417 1418 1419 1420 1421 1422 1423 1424 1425 1426 1426 1427 1427 1427 1428 1428 1428
1406 1406 1405 1404 1404 1403 1403 1403 1403 1403 1403 1403 1403 1403 1404 1404 1403 1404 1405 1405 1406 1408 1409 1410 1412 1413 1414 1416 1416 1417 1418 1419 1420 1420 1421 1422 1423 1423 1423 1424 1424 1425 1425
1405 1404 1403 1403 1402 1402 1402 1402 1402 1402 1402 1401 1401 1402 1402 1401 1401 1402 1402 1403 1404 1406 1407 1408 1409 1410 1412 1413 1413 1414 1415 1416 1416 1417 1418 1419 1419 1420 1420 1420 1421 1421 1422
1403 1402 1402 1402 1401 1401 1401 1401 1401 1400 1400 1400 1400 1400 1400 1400 1400 1400 1401 1401 1402 1404 1405 1406 1406 1407 1408 1409 1410 1411 1412 1413 1413 1414 1414 1415 1416 1416 1417 1417 1417 1418 1418
1402 1401 1400 1400 1400 1399 1399 1399 1399 1399 1398 1398 1398 1398 1398 1398 1398 1399 1399 1400 1401 1401 1402 1403 1404 1404 1405 1406 1407 1407 1408 1409 1410 1410 1411 1412 1412 1413 1413 1414 1414 1415 1415
1400 1400 1399 1398 1398 1398 1398 1398 1397 1397 1397 1397 1397 1396 1396 1396 1396 1397 1397 1398 1398 1399 1400 1400 1401 1401 1402 1403 1403 1404 1405 1405 1406 1407 1408 1408 1409 1409 1410 1411 1411 1411 1412
1399 1398 1398 1397 1397 1397 1397 1396 1396 1396 1396 1396 1395 1395 1395 1395 1395 1395 1395 1396 1396 1396 1397 1398 1398 1398 1399 1400 1400 1400 1401 1402 1403 1404 1404 1405 1405 1406 1407 1407 1408 1408 1409